Weather in Tolkachevka

Russia / Kursk Oblast     51°49′22″N   35°14′14″E
temp.,
°C
wind,
m/s
gust,
m/s
humid.,
%
clouds,
%
prec.,
mm/h
press.,
hPa
HPBL,
m
8 august, mon
mon800:00+20nne3450100 0.0 101745
03:00+18nne4882100 0.0 1018146
06:00+17ene3682100 0.0 1018112
09:00+22ene236075 0.0 1018315
12:00+27ne224670 0.0 1018788
15:00+28nne114382 0.0 10181072
18:00+28wnw12506 0.0 1018779
21:00+21nnw3774100 0.0 1018111
9 august, tue
tue900:00+21nnw3676100 0.0 1019132
03:00+20wnw238189 0.0 101853
06:00+18nnw259164 0.0 1019132
09:00+21nw3379100 0.0 1019307
12:00+25nnw34628 0.0 1019780
15:00+27nnw435775 0.0 10181288
18:00+24nnw5567100 0.0 1018699
21:00+18n41089100 1.8 1019240
10 august, wed
wed1000:00+17n4109399 0.0 1019301
03:00+16n4995100 0.0 1019261
06:00+16nne4897100 0.0 1019256
09:00+17n4795100 0.0 1019305
12:00+18nne588999 0.0 1019413
15:00+22ne7970100 0.0 1019635
18:00+22nne6873100 0.0 1019721
21:00+18nne61281100 0.0 1020371
11 august, thu
thu1100:00+17ne61578100 0.0 1020432
03:00+17ne61477100 0.0 1020468
06:00+16ne61474100 0.1 1021393
09:00+19ne7136287 0.2 1022550
12:00+23ene795197 0.0 1022863
15:00+25ne674616 0.0 10221152
18:00+24ne695321 0.0 1022660
21:00+18ne410654 0.0 1023180
12 august, fri
fri1200:00+16ne410630 0.0 1023169
03:00+15ne38680 0.0 1023145
06:00+14ne410710 0.0 1024196
09:00+20ne58570 0.0 1024394
12:00+25ene56450 0.0 1023968
15:00+27ene66410 0.0 10221439
18:00+26ne58510 0.0 1022414
21:00+20ne410620 0.0 1022170